Flag for Brazil Weather past 2 weeks in Campinas, São Paulo, Brazil

Now
81 °F

Passing clouds.


Feels Like: 80 °F
Forecast: 61 / 79 °F
Wind: 5 mph from Northeast

Location: Campinas Aeroporto

Current Time: Apr 27, 2015 at 3:38:42 PM

Latest Report: Apr 27, 2015 at 2:00 PM


Visibility: N/A

Pressure: 30.04 "Hg

Humidity: 34%

Dew point: 50 °F

Location of CampinasLocation

Historic Weather in Campinas — Graph

°F

Campinas temperature yesterday

Maximum temperature yesterday: 77 °F (at 3:00 PM)
Minimum temperature yesterday: 59 °F (at 6:00 AM)
Average temperature yesterday: 68 °F

Past Weeks' High & Low Weather Summary

 TemperatureHumidityPressure
High86 °F (Apr 18, 2:00 PM)100% (Apr 16, 2:00 AM)30.18 "Hg (Apr 16, 2:00 AM)
Low59 °F (Apr 26, 6:00 AM)32% (Apr 12, 4:00 PM)29.89 "Hg (Apr 20, 4:00 PM)
Average72 °F76%30.05 "Hg
* Reported Apr 12 2:00 PM — Apr 27 2:00 PM, Campinas, Weather by CustomWeather, © 2015

Note: Actual official high and low records may vary slightly from our data, if they occured in-between our weather recording intervals... More about our weather records

Advertising

Campinas weather history for previous 24 hours

 ConditionsComfort  
Time TempWeatherWind HumidityBarometerVisibility
2:00 PM
Mon, Apr 27
81 °FPassing clouds.5 mph34%30.04 "HgN/A
1:00 PM79 °FScattered clouds.6 mph34%30.07 "HgN/A
12:00 PM77 °FScattered clouds.6 mph44%30.09 "HgN/A
11:00 AM75 °FPassing clouds.7 mph50%30.12 "HgN/A
10:00 AM72 °FSunny.3 mph65%30.15 "Hg10 mi
9:00 AM68 °FSunny.6 mph73%30.15 "Hg10 mi
8:00 AM64 °FPassing clouds.8 mph83%30.15 "HgN/A
7:00 AM61 °FPassing clouds.7 mph94%30.12 "HgN/A
6:00 AM61 °FSunny.7 mph94%30.09 "Hg10 mi
5:00 AM63 °FClear.7 mph88%30.09 "Hg10 mi
4:00 AM63 °FClear.10 mph88%30.09 "Hg10 mi
3:00 AM63 °FClear.13 mph88%30.09 "Hg10 mi
2:00 AM63 °FClear.15 mph88%30.12 "Hg10 mi
1:00 AM64 °FPassing clouds.14 mph83%30.12 "HgN/A
12:00 AM64 °FPassing clouds.16 mph83%30.12 "HgN/A
11:00 PM
Sun, Apr 26
66 °FPassing clouds.16 mph78%30.12 "HgN/A
10:00 PM66 °FPassing clouds.14 mph78%30.12 "HgN/A
9:00 PM66 °FClear.14 mph78%30.12 "Hg10 mi
8:00 PM68 °FClear.14 mph78%30.12 "Hg10 mi
7:00 PM70 °FClear.14 mph69%30.12 "Hg10 mi
6:00 PM73 °FPassing clouds.10 mph57%30.09 "HgN/A
5:00 PM75 °FPassing clouds.12 mph54%30.09 "HgN/A
4:00 PM77 °FPassing clouds.14 mph51%30.09 "HgN/A
3:00 PM77 °FScattered clouds.10 mph47%30.09 "HgN/A
Weather by CustomWeather, © 2015

See weather overviewHow to use our weather pages